Terminal Aerodrome Forecast
Issued by NWS New Orleans/Baton Rouge, LA

Home | Current Version | Previous Version | Text Only | Print | Product List | Glossary On
Versions: 1 2 3 4 5 6 7 8 9 10 11 12 13
000
FTUS44 KLIX 190520
TAFNEW
TAF
KNEW 190520Z 1906/2006 08008KT P6SM SKC
     FM191600 07010KT P6SM FEW035 SCT150=

USA.gov is the U.S. government's official web portal to all federal, state and local government web resources and services.